Regional Weather Roundup
Issued by NWS

Home | Current Version | Previous Version | Graphics & Text | Print | Product List | Glossary Off
Versions: 1 2 3 4 5 6 7 8 9 10 11 12 13 14 15 16 17 18 19 20 21 22 23 24 25 26 27 28 29 30 31 32 33 34 35 36 37 38 39 40 41 42 43 44 45 46 47 48 49 50

000
ASUS43 KIND 191409
RWRIN

WEATHER ROUNDUP FOR INDIANA
NATIONAL WEATHER SERVICE INDIANAPOLIS IN
900 AM EST FRI DEC 19 2014

NOTE: "FAIR" INDICATES FEW OR NO CLOUDS BELOW 12,000 FEET WITH NO
SIGNIFICANT WEATHER AND/OR OBSTRUCTIONS TO VISIBILITY.

* - STATION DOES NOT REPORT WEATHER SUCH AS PRECIPITATION OR FOG.

+ - STATION NOT QUALITY CONTROLLED BY THE NATIONAL WEATHER SERVICE.
    USE DATA WITH CAUTION...ESPECIALLY DEWPOINT AND RELATIVE
    HUMIDITY OBSERVATIONS.

INZ001>003-010>013-019-020-191500-
NORTHWEST INDIANA

CITY           SKY/WX    TMP DP  RH WIND       PRES   REMARKS
GARY /AIRPORT/ CLOUDY    32  23  69 W7        30.30R WCI  26
KNOX *+        CLOUDY    28  23  80 W7        30.26F WCI  21
LA PORTE +     CLOUDY    32  27  82 CALM      30.27R
MICHIGAN CITY+ CLOUDY    32  23  69 N7        30.27S WCI  26
MONTICELLO +   CLOUDY    26  23  89 CALM      30.27F
RENSSELAER +   CLOUDY    28  27  93 W5        30.28S WCI  23
VALPARAISO     CLOUDY    29  24  82 W5        30.28R WCI  24

$$

LMZ046-743>745-191500-
SOUTHERN LAKE MICHIGAN

STATION/POSITION TIME  TEMP WIND        PRES
                       AIR  DIR/SP/G
                 (UTC) (F)  (DEG/KT/KT) (MB)

$$

INZ004-005-014>016-021>024-191500-
NORTH CENTRAL INDIANA

CITY           SKY/WX    TMP DP  RH WIND       PRES   REMARKS
ELKHART        MOCLDY    28  21  74 CALM      30.27S
GOSHEN         CLOUDY    27  24  89 CALM      30.26R FOG
LOGANSPORT +   CLOUDY    27  21  80 CALM      30.28S HAZE
PERU/GRISSOM   FLURRIES  27  27 100 W5        30.26F WCI  21
ROCHESTER +    MOCLDY    30  28  93 W3        30.27S FOG
SOUTH BEND     NOT AVBL
WARSAW +       CLOUDY    28  25  86 CALM      30.26S FOG

$$

INZ006>009-017-018-025>027-191500-
NORTHEAST INDIANA

CITY           SKY/WX    TMP DP  RH WIND       PRES   REMARKS
ANGOLA *+      CLOUDY    27  19  74 NW3       30.24S
AUBURN +       MOCLDY    28  25  86 CALM      30.26R FOG
FORT WAYNE     MOCLDY    27  22  81 CALM      30.27S
HUNTINGTON +   CLOUDY    26  23  88 CALM      30.27S

$$

INZ028-029-035-036-043>045-051>053-191500-
WEST CENTRAL INDIANA

CITY           SKY/WX    TMP DP  RH WIND       PRES   REMARKS
GREENCASTLE +  CLEAR     23  18  80 N3        30.30R HAZE
LAFAYETTE      CLOUDY    23  20  88 CALM      30.29S
TERRE HAUTE    CLEAR     23  20  88 CALM      30.33R

$$

INZ030>032-037>040-046>048-054>057-064-065-191500-
CENTRAL INDIANA

CITY           SKY/WX    TMP DP  RH WIND       PRES   REMARKS
ANDERSON       CLOUDY    27  19  74 NW9       30.27  WCI  17
CP ATTERBURY + CLEAR     19  18  93 MISG      30.31R
COLUMBUS       CLEAR     21  21 100 CALM      30.32R FOG
FRANKFORT +    CLOUDY    25  22  89 W3        30.28S
INDIANAPOLIS   MOCLDY    22  19  89 CALM      30.29R
-EAGLE CREEK   CLOUDY    24  19  81 CALM      30.29R
KOKOMO *+      CLOUDY    27  19  74 NW5       30.27R WCI  21
MARION +       CLOUDY    26  23  89 CALM      30.27S FOG
MT COMFORT *+  CLOUDY    25  21  86 CALM      30.28R
SHELBYVILLE    CLOUDY    25  20  81 CALM      30.29R
ZIONSVILLE +   CLOUDY    25  20  80 CALM      30.28R

$$

INZ033-034-041-042-049-050-058-059-191500-
EAST CENTRAL INDIANA

CITY           SKY/WX    TMP DP  RH WIND       PRES   REMARKS
MUNCIE         CLOUDY    26  21  81 NW3       30.26F

$$

INZ060-061-067>069-081>083-085>088-191500-
SOUTHWEST INDIANA

CITY           SKY/WX    TMP DP  RH WIND       PRES   REMARKS
EVANSVILLE     MOCLDY    30  23  75 NE9       30.33S WCI  22
HUNTINGBURG *+ CLEAR     27  21  80 N6        30.31F WCI  20
WASHINGTON +   MOCLDY    27  21  80 N5        30.31F WCI  21

$$

INZ062-063-066-070>080-084-089>092-191500-
SOUTH CENTRAL AND SOUTHEAST INDIANA

CITY           SKY/WX    TMP DP  RH WIND       PRES   REMARKS
BLOOMINGTON    PTCLDY    24  21  88 SW3       30.30R

$$




USA.gov is the U.S. government's official web portal to all federal, state and local government web resources and services.